Volver al catálogo

FENGYUN 1C DEB

ActivoSSO
NORAD 30140·DEBRIS·🇨🇳 China

Lanzado May 10, 1999 desde Taiyuan Satellite Launch Center

Loading…

Próximos Pases (próximas 24 horas)

TLE

ActualizadoSource: Space-Track

Época: Sep 14, 2026, 11:11 UTC

1 30140U 99025SV  26257.46604264  .00001485  00000-0  68479-3 0  9992
2 30140  98.8075 324.9705 0040179 236.9800 191.0786 14.22141408 10501

Sigue FENGYUN 1C DEB en tiempo real con AllMySat

Download on the App Store